Погода в станции Чупа

Россия / Республика Карелия     66°15′58″N   32°57′53″E
темп.,
°C
ветер,
м/с
пор.,
м/с
влажн.,
%
обл.,
%
осадки,
мм/ч
давл.,
гПа
погр.,
м
26 января, вт
вт2600:00−7с229799 0.4 100462
03:00−7ссв2397100 0.8 100592
06:00−6ссв2397100 0.2 1006132
09:00−5ссв1297100 0.5 100794
12:00−2всв2498100 0.8 1007201
15:00−2св3498100 2.1 1008147
18:00−4с2498100 0.4 1008118
21:00−4сз3698100 0.8 1008181
27 января, ср
ср2700:00−5ссв3796100 0.4 1008254
03:00−9с3796100 0.6 1008243
06:00−9ссв4896100 0.2 1007315
09:00−10ссв4895100 0.6 1006339
12:00−11св4995100 0.4 1006405
15:00−11св4994100 1.0 1006447
18:00−12св4994100 0.6 1006491
21:00−13св4994100 1.1 1007505
28 января, чт
чт2800:00−13св4995100 0.3 1008525
03:00−13св4994100 0.6 1010587
06:00−14св3994100 0.3 1011577
09:00−14всв4895100 0.5 1012537
12:00−14всв4894100 0.3 1014583
15:00−14всв4894100 0.6 1015535
18:00−14всв4995100 0.4 1015555
21:00−13всв4994100 1.3 1016616
29 января, пт
пт2900:00−13в4994100 0.5 1016599
03:00−12всв4995100 0.8 1015460
06:00−12всв4995100 0.3 1015483
09:00−12всв4995100 0.6 1014518
12:00−11всв51094100 0.3 1014584
15:00−12св51094100 0.6 1013507
18:00−13св41095100 0.4 1012456
21:00−12св4995100 1.1 1011518
30 января, сб
сб3000:00−10св4995100 1.0 1010556
03:00−10св4995100 1.8 1008524
06:00−10св4995100 0.9 1006531
09:00−10св4994100 1.9 1005535
12:00−10св4894100 0.2 1005589
15:00−10св4894100 0.4 1004537
18:00−11св3895100 0.1 1003420
21:00−12св3796100 0.3 1003337